Change the Weather History Date:

Saturday, October 5, 2013

  Actual Average (KGSO) Record (KGSO)
Temperature  
Mean Temperature 72 °F 63 °F  
Max Temperature 87 °F 73 °F 95 °F (1954)
Min Temperature 57 °F 53 °F 35 °F (1968)
Degree Days  
Heating Degree Days 0 4  
Month to date heating degree days 17  
Since 1 July heating degree days 48  
Cooling Degree Days 7 2  
Month to date cooling degree days 11  
Year to date cooling degree days 1458  
Growing Degree Days 22 (Base 50)    
Moisture  
Dew Point 62 °F    
Average Humidity 81    
Maximum Humidity 100    
Minimum Humidity 41    
Precipitation  
Precipitation 0.00 in 0.11 in 1.59 in (1991)
Month to date precipitation 0.51  
Year to date precipitation 33.49  
Sea Level Pressure  
Sea Level Pressure 30.10 in    
Wind  
Wind Speed 0 mph (SW)    
Max Wind Speed 8 mph    
Max Gust Speed -    
Visibility 6 miles    
Events      
T = Trace of Precipitation, MM = Missing Value Source: NWS Daily Summary

Daily Weather History Graph

Daily Weather History Graph

Search for Another Location

Airport or City:

Trip Planner

Search our weather history database for the weather conditions in past years. The results will help you decide how hot, cold, wet, or windy it might be!

Date:

Astronomy

Oct. 05, 2013 Rise Set
Actual Time 7:18 AM EDT 6:56 PM EDT
Civil Twilight 6:52 AM EDT 7:22 PM EDT
Nautical Twilight 6:22 AM EDT 7:52 PM EDT
Astronomical Twilight 5:52 AM EDT 8:22 PM EDT
Moon 7:53 AM EDT (10/5) 7:17 PM EDT (10/5)
Length of Visible Light 12h 30m
Length of Day
11h 38m
New Moon, 0% of the Moon is Illuminated
Oct 5
New Moon
Oct 11
First Quarter
Oct 18
Full
Oct 26
Last Quarter
Nov 3
New

Hourly Weather History & Observations

Time (EDT) Temp. Heat Index Dew Point Humidity Pressure Visibility Wind Dir Wind Speed Gust Speed Precip Events Conditions
12:15 AM 61.5 °F - 61.3 °F 99% 30.11 in 3.0 mi Calm Calm - N/A   Clear
12:35 AM 60.8 °F - 60.8 °F 100% 30.11 in 2.5 mi Calm Calm - N/A   Clear
12:55 AM 61.2 °F - 61.2 °F 100% 30.11 in 3.0 mi Calm Calm - N/A   Clear
1:15 AM 60.8 °F - 60.8 °F 100% 30.11 in 2.5 mi Calm Calm - N/A   Clear
1:35 AM 59.2 °F - 59.0 °F 99% 30.11 in 0.8 mi Calm Calm - N/A   Mist
1:55 AM 59.2 °F - 59.2 °F 100% 30.11 in 3.0 mi Calm Calm - N/A   Clear
2:15 AM 60.1 °F - 60.1 °F 100% 30.11 in 2.0 mi Calm Calm - N/A   Clear
2:35 AM 59.9 °F - 59.9 °F 100% 30.11 in 2.0 mi Calm Calm - N/A   Clear
2:55 AM 59.0 °F - 59.0 °F 100% 30.11 in 1.8 mi Calm Calm - N/A   Mist
3:15 AM 58.3 °F - 58.3 °F 100% 30.11 in 2.0 mi Calm Calm - N/A   Clear
3:35 AM 58.3 °F - 58.3 °F 100% 30.10 in 2.5 mi Calm Calm - N/A   Clear
3:55 AM 57.7 °F - 57.7 °F 100% 30.10 in 1.5 mi Calm Calm - N/A   Mist
4:15 AM 58.6 °F - 58.6 °F 100% 30.10 in 3.0 mi Calm Calm - N/A   Clear
4:35 AM 57.6 °F - 57.6 °F 100% 30.11 in 2.5 mi Calm Calm - N/A   Clear
4:55 AM 58.5 °F - 58.5 °F 100% 30.11 in 2.5 mi Calm Calm - N/A   Clear
5:15 AM 58.3 °F - 58.3 °F 100% 30.11 in 2.5 mi Calm Calm - N/A   Clear
5:35 AM 57.9 °F - 57.9 °F 100% 30.12 in 2.5 mi Calm Calm - N/A   Clear
5:55 AM 57.6 °F - 57.6 °F 100% 30.12 in 3.0 mi Calm Calm - N/A   Clear
6:15 AM 57.6 °F - 57.6 °F 100% 30.13 in 2.5 mi Calm Calm - N/A   Clear
6:35 AM 57.2 °F - 57.2 °F 100% 30.13 in 3.0 mi Calm Calm - N/A   Clear
6:55 AM 57.4 °F - 57.4 °F 100% 30.14 in 2.5 mi Calm Calm - N/A   Clear
7:15 AM 58.3 °F - 58.3 °F 100% 30.14 in 2.0 mi Calm Calm - N/A   Clear
7:35 AM 57.7 °F - 57.7 °F 100% 30.14 in 1.5 mi Calm Calm - N/A   Mist
7:55 AM 59.0 °F - 59.0 °F 100% 30.14 in 3.0 mi Calm Calm - N/A   Clear
8:15 AM 61.2 °F - 61.2 °F 100% 30.14 in 4.0 mi Calm Calm - N/A   Clear
8:35 AM 62.6 °F - 62.6 °F 100% 30.14 in 7.0 mi Calm Calm - N/A   Clear
8:55 AM 64.0 °F - 64.0 °F 100% 30.15 in 10.0 mi Calm Calm - N/A   Clear
9:15 AM 66.0 °F - 64.0 °F 93% 30.15 in 10.0 mi Calm Calm - N/A   Clear
9:35 AM 68.4 °F - 64.2 °F 87% 30.14 in 10.0 mi Calm Calm - N/A   Clear
9:55 AM 71.1 °F - 65.5 °F 82% 30.14 in 10.0 mi Calm Calm - N/A   Clear
10:15 AM 73.2 °F - 65.3 °F 76% 30.14 in 10.0 mi Calm Calm - N/A   Clear
10:35 AM 75.9 °F - 66.7 °F 73% 30.14 in 10.0 mi Calm Calm - N/A   Clear
10:55 AM 78.4 °F - 67.3 °F 68% 30.14 in 10.0 mi Calm Calm - N/A   Clear
11:15 AM 80.6 °F 82.8 °F 66.4 °F 62% 30.14 in 10.0 mi Calm Calm - N/A   Clear
11:35 AM 81.9 °F 84.2 °F 66.6 °F 60% 30.13 in 10.0 mi Calm Calm - N/A   Clear
11:55 AM 82.4 °F 84.2 °F 65.5 °F 56% 30.13 in 10.0 mi Calm Calm - N/A   Clear
12:15 PM 83.3 °F 84.8 °F 64.8 °F 53% 30.13 in 10.0 mi Calm Calm - N/A   Clear
12:35 PM 84.0 °F 85.6 °F 64.4 °F 52% 30.12 in 10.0 mi Calm Calm - N/A   Clear
12:55 PM 85.1 °F 86.4 °F 64.0 °F 49% 30.11 in 10.0 mi WSW 3.5 mph - N/A   Clear
1:15 PM 86.5 °F 87.6 °F 63.5 °F 46% 30.11 in 7.0 mi SSW 6.9 mph - N/A   Scattered Clouds
1:35 PM 86.0 °F 86.8 °F 62.8 °F 46% 30.10 in 7.0 mi WSW 4.6 mph - N/A   Clear
1:55 PM 86.0 °F 86.1 °F 61.2 °F 43% 30.09 in 7.0 mi WSW 3.5 mph - N/A   Clear
2:15 PM 87.1 °F 87.0 °F 60.6 °F 41% 30.08 in 7.0 mi SW 3.5 mph - N/A   Clear
2:35 PM 87.1 °F 87.2 °F 61.2 °F 42% 30.08 in 5.0 mi SW 5.8 mph - N/A   Haze
2:55 PM 86.5 °F 86.8 °F 61.9 °F 43% 30.07 in 7.0 mi South 8.1 mph - N/A   Clear
3:15 PM 86.2 °F 86.6 °F 61.9 °F 44% 30.07 in 7.0 mi Calm Calm - N/A   Scattered Clouds
3:35 PM 85.3 °F 85.7 °F 61.7 °F 45% 30.06 in 7.0 mi Calm Calm - N/A   Scattered Clouds
3:55 PM 87.6 °F 87.9 °F 61.7 °F 42% 30.06 in 7.0 mi South 4.6 mph - N/A   Clear
4:15 PM 87.4 °F 87.7 °F 62.1 °F 42% 30.06 in 7.0 mi SW 5.8 mph - N/A   Clear
4:35 PM 87.1 °F 87.5 °F 62.1 °F 43% 30.06 in 10.0 mi South 3.5 mph - N/A   Clear
4:55 PM 86.4 °F 87.0 °F 62.4 °F 45% 30.06 in 7.0 mi SW 3.5 mph - N/A   Clear
5:15 PM 86.4 °F 87.0 °F 62.6 °F 45% 30.05 in 10.0 mi Calm Calm - N/A   Clear
5:35 PM 85.1 °F 86.1 °F 63.1 °F 48% 30.05 in 10.0 mi Calm Calm - N/A   Clear
5:55 PM 85.1 °F 85.9 °F 63.0 °F 47% 30.05 in 10.0 mi Calm Calm - N/A   Clear
6:15 PM 82.9 °F 84.8 °F 65.3 °F 55% 30.05 in 10.0 mi Calm Calm - N/A   Clear
6:35 PM 76.3 °F - 69.8 °F 80% 30.05 in 7.0 mi Calm Calm - N/A   Scattered Clouds
6:55 PM 74.5 °F - 69.8 °F 85% 30.05 in 7.0 mi Calm Calm - N/A   Mostly Cloudy
7:15 PM 72.3 °F - 68.9 °F 89% 30.05 in 7.0 mi Calm Calm - N/A   Scattered Clouds
7:35 PM 70.7 °F - 68.0 °F 91% 30.05 in 7.0 mi Calm Calm - N/A   Scattered Clouds
7:55 PM 69.8 °F - 67.6 °F 93% 30.06 in 5.0 mi Calm Calm - N/A   Scattered Clouds
8:15 PM 68.9 °F - 66.7 °F 93% 30.06 in 5.0 mi Calm Calm - N/A   Mostly Cloudy
8:35 PM 68.0 °F - 66.2 °F 94% 30.06 in 7.0 mi Calm Calm - N/A   Scattered Clouds
8:55 PM 66.9 °F - 65.3 °F 95% 30.07 in 7.0 mi Calm Calm - N/A   Clear
9:15 PM 66.7 °F - 65.5 °F 96% 30.07 in 5.0 mi Calm Calm - N/A   Scattered Clouds
9:35 PM 66.2 °F - 65.1 °F 96% 30.08 in 7.0 mi Calm Calm - N/A   Clear
9:55 PM 64.4 °F - 63.5 °F 97% 30.08 in 7.0 mi Calm Calm - N/A   Clear
10:15 PM 65.3 °F - 64.4 °F 97% 30.08 in 5.0 mi Calm Calm - N/A   Clear
10:35 PM 64.9 °F - 64.2 °F 98% 30.08 in 5.0 mi Calm Calm - N/A   Clear
10:55 PM 64.4 °F - 63.7 °F 98% 30.08 in 4.0 mi Calm Calm - N/A   Clear
11:15 PM 64.4 °F - 63.7 °F 98% 30.07 in 3.0 mi Calm Calm - N/A   Clear
11:35 PM 63.7 °F - 63.3 °F 99% 30.07 in 3.0 mi Calm Calm - N/A   Clear
11:55 PM 63.5 °F - 63.1 °F 99% 30.07 in 2.5 mi Calm Calm - N/A   Clear